TimeEST,TemperatureF,Dew PointF,Humidity,Sea Level PressureIn,VisibilityMPH,Wind Direction,Wind SpeedMPH,Gust SpeedMPH,PrecipitationIn,Events,Conditions,WindDirDegrees,DateUTC
12:18 AM,33.8,19.4,56,30.24,10.0,Calm,Calm,-,N/A,,Overcast,0,2014-01-05 05:18:00
12:38 AM,33.8,19.4,56,30.23,10.0,Calm,Calm,-,N/A,,Overcast,0,2014-01-05 05:38:00
12:58 AM,33.8,21.2,60,30.23,10.0,Calm,Calm,-,N/A,,Overcast,0,2014-01-05 05:58:00
1:18 AM,33.8,21.2,60,30.23,10.0,Calm,Calm,-,N/A,,Overcast,0,2014-01-05 06:18:00
1:38 AM,33.8,24.8,70,30.22,10.0,Calm,Calm,-,N/A,,Overcast,0,2014-01-05 06:38:00
1:58 AM,33.8,24.8,70,30.22,10.0,Calm,Calm,-,N/A,,Overcast,0,2014-01-05 06:58:00
2:18 AM,33.8,24.8,70,30.23,10.0,Calm,Calm,-,N/A,Rain,Light Rain,0,2014-01-05 07:18:00
2:38 AM,32.0,28.4,87,30.22,7.0,Calm,Calm,-,N/A,Rain,Light Rain,0,2014-01-05 07:38:00
2:58 AM,32.0,28.4,87,30.21,7.0,Calm,Calm,-,N/A,,Overcast,0,2014-01-05 07:58:00
3:18 AM,32.0,28.4,87,30.21,7.0,Calm,Calm,-,N/A,,Overcast,0,2014-01-05 08:18:00
3:38 AM,32.0,30.2,93,30.21,3.0,NW,3.5,-,N/A,,Overcast,320,2014-01-05 08:38:00
3:58 AM,30.2,30.2,100,30.20,4.0,NW,3.5,-,N/A,,Overcast,320,2014-01-05 08:58:00
4:18 AM,30.2,30.2,100,30.19,4.0,Calm,Calm,-,N/A,,Overcast,0,2014-01-05 09:18:00
4:38 AM,32.0,30.2,93,30.18,4.0,Calm,Calm,-,N/A,,Overcast,0,2014-01-05 09:38:00
4:58 AM,30.2,30.2,100,30.17,4.0,Calm,Calm,-,N/A,,Overcast,0,2014-01-05 09:58:00
5:18 AM,32.0,30.2,93,30.18,2.0,Calm,Calm,-,0.04,Snow,Light Snow,0,2014-01-05 10:18:00
5:39 AM,32.0,30.2,93,30.18,3.0,Calm,Calm,-,0.05,,Overcast,0,2014-01-05 10:39:00
6:00 AM,32.0,32.0,100,30.17,1.5,Calm,Calm,-,N/A,,Overcast,0,2014-01-05 11:00:00
6:18 AM,32.0,32.0,100,30.17,2.5,Calm,Calm,-,N/A,,Overcast,0,2014-01-05 11:18:00
6:39 AM,32.0,32.0,100,30.17,3.0,Calm,Calm,-,N/A,,Overcast,0,2014-01-05 11:39:00
6:59 AM,32.0,32.0,100,30.17,3.0,Calm,Calm,-,N/A,,Overcast,0,2014-01-05 11:59:00
7:18 AM,32.0,32.0,100,30.16,2.5,Calm,Calm,-,N/A,,Overcast,0,2014-01-05 12:18:00
7:39 AM,33.8,32.0,93,30.16,2.5,Calm,Calm,-,N/A,,Overcast,0,2014-01-05 12:39:00
7:59 AM,33.8,33.8,100,30.17,2.0,Calm,Calm,-,N/A,,Overcast,0,2014-01-05 12:59:00
8:20 AM,33.8,33.8,100,30.16,2.0,Calm,Calm,-,N/A,,Overcast,0,2014-01-05 13:20:00
8:39 AM,33.8,33.8,100,30.15,1.8,Calm,Calm,-,N/A,,Overcast,0,2014-01-05 13:39:00
8:59 AM,33.8,33.8,100,30.15,1.5,Calm,Calm,-,N/A,,Overcast,0,2014-01-05 13:59:00
9:19 AM,33.8,33.8,100,30.13,1.2,Calm,Calm,-,N/A,,Overcast,0,2014-01-05 14:19:00
9:39 AM,35.6,35.6,100,30.13,0.5,East,3.5,-,N/A,Fog,Fog,100,2014-01-05 14:39:00
10:00 AM,35.6,35.6,100,30.14,0.8,Calm,Calm,-,N/A,,Overcast,0,2014-01-05 15:00:00
10:19 AM,35.6,35.6,100,30.13,0.5,Calm,Calm,-,N/A,Rain,Rain,0,2014-01-05 15:19:00
10:39 AM,35.6,35.6,100,30.13,0.8,Calm,Calm,-,N/A,,Light Drizzle,0,2014-01-05 15:39:00
11:00 AM,37.4,37.4,100,30.13,0.8,Calm,Calm,-,N/A,,Light Drizzle,0,2014-01-05 16:00:00
11:19 AM,37.4,37.4,100,30.10,1.0,Calm,Calm,-,N/A,,Light Drizzle,0,2014-01-05 16:19:00
11:39 AM,37.4,37.4,100,30.09,1.5,Calm,Calm,-,N/A,,Overcast,0,2014-01-05 16:39:00
11:59 AM,37.4,37.4,100,30.08,2.0,Calm,Calm,-,N/A,,Overcast,0,2014-01-05 16:59:00
12:19 PM,39.2,37.4,93,30.05,1.5,NNE,3.5,-,N/A,,Overcast,30,2014-01-05 17:19:00
12:39 PM,39.2,39.2,100,30.03,2.0,Calm,Calm,-,N/A,,Overcast,0,2014-01-05 17:39:00
1:00 PM,39.2,39.2,100,30.02,2.5,Calm,Calm,-,N/A,,Overcast,0,2014-01-05 18:00:00
1:19 PM,39.2,39.2,100,30.01,1.2,Calm,Calm,-,0.01,Rain,Rain,0,2014-01-05 18:19:00
1:39 PM,39.2,39.2,100,30.01,1.5,Calm,Calm,-,0.02,,Heavy Drizzle,0,2014-01-05 18:39:00
1:59 PM,39.2,39.2,100,30.00,2.0,Calm,Calm,-,0.03,,Drizzle,0,2014-01-05 18:59:00
2:19 PM,39.2,39.2,100,29.98,1.8,Calm,Calm,-,N/A,,Overcast,0,2014-01-05 19:19:00
2:39 PM,41.0,39.2,93,29.97,1.8,Calm,Calm,-,N/A,,Overcast,0,2014-01-05 19:39:00
2:59 PM,41.0,39.2,93,29.97,1.5,Calm,Calm,-,N/A,,Overcast,0,2014-01-05 19:59:00
3:19 PM,39.2,39.2,100,29.96,1.0,Calm,Calm,-,N/A,,Overcast,0,2014-01-05 20:19:00
3:39 PM,39.2,39.2,100,29.97,0.8,Calm,Calm,-,N/A,,Overcast,0,2014-01-05 20:39:00
3:59 PM,39.2,39.2,100,29.96,0.8,Calm,Calm,-,N/A,,Overcast,0,2014-01-05 20:59:00
4:19 PM,39.2,39.2,100,29.97,0.5,Calm,Calm,-,N/A,Fog,Fog,0,2014-01-05 21:19:00
4:39 PM,39.2,39.2,100,29.95,0.2,Calm,Calm,-,N/A,Fog,Fog,0,2014-01-05 21:39:00
4:59 PM,39.2,39.2,100,29.96,0.2,SW,3.5,-,N/A,Fog,Fog,230,2014-01-05 21:59:00
5:19 PM,39.2,39.2,100,29.96,0.2,SSW,3.5,-,N/A,Fog,Fog,210,2014-01-05 22:19:00
5:39 PM,39.2,39.2,100,29.94,0.5,Calm,Calm,-,N/A,Fog,Fog,0,2014-01-05 22:39:00
5:59 PM,39.2,39.2,100,29.94,0.5,Calm,Calm,-,N/A,Fog,Fog,0,2014-01-05 22:59:00
6:19 PM,39.2,39.2,100,29.93,0.5,Calm,Calm,-,N/A,Fog,Fog,0,2014-01-05 23:19:00
6:39 PM,39.2,39.2,100,29.93,0.5,Calm,Calm,-,N/A,Fog,Fog,0,2014-01-05 23:39:00
7:00 PM,39.2,39.2,100,29.92,0.2,Calm,Calm,-,N/A,Fog,Fog,0,2014-01-06 00:00:00
7:19 PM,39.2,39.2,100,29.91,0.2,Calm,Calm,-,N/A,Fog,Fog,0,2014-01-06 00:19:00
7:39 PM,39.2,39.2,100,29.90,0.2,Calm,Calm,-,N/A,Fog,Fog,0,2014-01-06 00:39:00
8:00 PM,39.2,39.2,100,29.88,0.2,Calm,Calm,-,N/A,Fog,Fog,0,2014-01-06 01:00:00
8:19 PM,39.2,39.2,100,29.89,0.2,Calm,Calm,-,N/A,Fog,Fog,0,2014-01-06 01:19:00
8:39 PM,39.2,39.2,100,29.89,0.2,Calm,Calm,-,N/A,Fog,Fog,0,2014-01-06 01:39:00
8:59 PM,39.2,39.2,100,29.88,0.2,Calm,Calm,-,N/A,Fog,Fog,0,2014-01-06 01:59:00
9:19 PM,39.2,39.2,100,29.87,0.2,Calm,Calm,-,N/A,Fog,Fog,0,2014-01-06 02:19:00
9:39 PM,39.2,39.2,100,29.86,0.2,Calm,Calm,-,N/A,Fog,Fog,0,2014-01-06 02:39:00
9:59 PM,39.2,39.2,100,29.84,0.2,Calm,Calm,-,N/A,Fog,Fog,0,2014-01-06 02:59:00
10:19 PM,39.2,39.2,100,29.83,0.5,WSW,3.5,-,N/A,Fog,Fog,240,2014-01-06 03:19:00
10:40 PM,39.2,39.2,100,29.81,0.5,Calm,Calm,-,N/A,Rain,Light Rain,0,2014-01-06 03:40:00
11:01 PM,39.2,39.2,100,29.81,1.2,Calm,Calm,-,0.03,Rain,Heavy Rain,0,2014-01-06 04:01:00
11:20 PM,39.2,39.2,100,29.80,2.0,Calm,Calm,-,0.09,Rain,Heavy Rain,0,2014-01-06 04:20:00
11:40 PM,39.2,39.2,100,29.79,7.0,WSW,4.6,-,0.10,Rain,Rain,240,2014-01-06 04:40:00